Lycksele, Sweden

9:53 PM CEST on October 22, 2017 (GMT +0200)
Lycksele

Weather History for ESNL - April, 2014

Change the Weather History Date:

Saturday, April 12, 2014

  Actual Average Record
Temperature  
Mean Temperature 35 °F -  
Max Temperature 46 °F - - ()
Min Temperature 24 °F - - ()
Degree Days  
Heating Degree Days 30    
Moisture  
Dew Point 28 °F    
Average Humidity 70    
Maximum Humidity 93    
Minimum Humidity 46    
Precipitation  
Precipitation 0.00 in - - ()
Sea Level Pressure  
Sea Level Pressure 29.47 in    
Wind  
Wind Speed 6 mph ()    
Max Wind Speed 15 mph    
Max Gust Speed 25 mph    
Visibility 6.1 miles    
Events Rain    
T = Trace of Precipitation, MM = Missing Value Source: Averaged Metar Reports

Daily Weather History Graph

Daily Weather History Graph

Search for Another Location

Airport or City:

Trip Planner

Search our weather history database for the weather conditions in past years. The results will help you decide how hot, cold, wet, or windy it might be!

Date:

Astronomy

Apr. 12, 2014 Rise Set
Actual Time 5:23 AM CEST 8:10 PM CEST
Civil Twilight 4:28 AM CEST 9:05 PM CEST
Nautical Twilight 3:10 AM CEST 10:25 PM CEST
Astronomical Twilight 1:18 AM CEST 12:13 AM CEST
Moon 4:38 PM CEST (4/12) 4:42 AM CEST (4/12)
Length of Visible Light 16h 37m
Length of Day
14h 47m
Waxing Gibbous, 91% of the Moon is Illuminated
Apr 12
Waxing Gibbous
Apr 15
Full
Apr 22
Last Quarter
Apr 29
New
May 7
First Quarter

Hourly Weather History & Observations

Time (CEST) Temp. Windchill Dew Point Humidity Pressure Visibility Wind Dir Wind Speed Gust Speed Precip Events Conditions
12:20 AM 35.6 °F 32.8 °F 28.4 °F 75% 29.62 in 6.2 mi Variable 3.5 mph - N/A   Unknown
12:50 AM 33.8 °F 27.7 °F 28.4 °F 81% 29.62 in 6.2 mi West 6.9 mph - N/A   Unknown
1:20 AM 35.6 °F 29.9 °F 28.4 °F 75% 29.62 in 6.2 mi WSW 6.9 mph - N/A   Unknown
1:50 AM 35.6 °F 29.2 °F 28.4 °F 75% 29.65 in 6.2 mi WSW 8.1 mph - N/A   Unknown
2:20 AM 32.0 °F 27.5 °F 26.6 °F 80% 29.65 in 6.2 mi WSW 4.6 mph - N/A   Unknown
2:50 AM 28.4 °F - 24.8 °F 86% 29.62 in 6.2 mi Variable 2.3 mph - N/A   Unknown
3:20 AM 26.6 °F - 23.0 °F 86% 29.62 in 6.2 mi Calm Calm - N/A   Unknown
3:50 AM 26.6 °F - 23.0 °F 86% 29.62 in 6.2 mi ENE 1.2 mph - N/A   Unknown
4:20 AM 26.6 °F - 24.8 °F 93% 29.62 in 6.2 mi SSE 2.3 mph - N/A   Unknown
4:50 AM 26.6 °F 22.6 °F 23.0 °F 86% 29.62 in 6.2 mi SSE 3.5 mph - N/A   Unknown
5:20 AM 24.8 °F 20.5 °F 23.0 °F 93% 29.62 in 6.2 mi SE 3.5 mph - N/A   Unknown
5:50 AM 24.8 °F - 23.0 °F 93% 29.62 in 6.2 mi Variable 2.3 mph - N/A   Partly Cloudy
6:20 AM 24.8 °F - 23.0 °F 93% 29.62 in 6.2 mi Variable 1.2 mph - N/A   Partly Cloudy
6:50 AM 28.4 °F 24.6 °F 26.6 °F 93% 29.62 in 6.2 mi ESE 3.5 mph - N/A   Partly Cloudy
7:20 AM 33.8 °F 30.8 °F 28.4 °F 81% 29.59 in 6.2 mi SE 3.5 mph - N/A   Unknown
7:50 AM 37.4 °F 34.9 °F 28.4 °F 70% 29.59 in 6.2 mi Variable 3.5 mph - N/A   Unknown
8:20 AM 39.2 °F 34.2 °F 28.4 °F 65% 29.59 in 6.2 mi SSW 6.9 mph - N/A   Partly Cloudy
8:50 AM 39.2 °F 34.2 °F 28.4 °F 65% 29.59 in 6.2 mi South 6.9 mph - N/A   Partly Cloudy
9:20 AM 41.0 °F 39.0 °F 28.4 °F 61% 29.56 in 6.2 mi Variable 3.5 mph - N/A   Partly Cloudy
9:50 AM 41.0 °F 36.4 °F 26.6 °F 57% 29.56 in 6.2 mi South 6.9 mph - N/A   Partly Cloudy
10:20 AM 41.0 °F 37.1 °F 26.6 °F 57% 29.56 in 6.2 mi South 5.8 mph - N/A   Partly Cloudy
10:50 AM 41.0 °F 35.2 °F 26.6 °F 57% 29.53 in 6.2 mi SSE 9.2 mph - N/A   Partly Cloudy
11:20 AM 44.6 °F 40.2 °F 28.4 °F 53% 29.53 in - SE 8.1 mph - N/A   Clear
11:50 AM 44.6 °F 39.7 °F 28.4 °F 53% 29.53 in - SSE 9.2 mph - N/A   Clear
12:20 PM 44.6 °F 37.8 °F 26.6 °F 49% 29.50 in - SSE 15.0 mph - N/A   Clear
12:50 PM 46.4 °F 40.4 °F 26.6 °F 46% 29.47 in - South 13.8 mph 25.3 mph N/A   Clear
1:20 PM 44.6 °F 39.2 °F 24.8 °F 46% 29.47 in - South 10.4 mph - N/A   Clear
1:50 PM 44.6 °F 38.1 °F 24.8 °F 46% 29.44 in - SSE 13.8 mph - N/A   Clear
2:20 PM 46.4 °F 40.4 °F 26.6 °F 46% 29.42 in 6.2 mi SSE 13.8 mph - N/A   Partly Cloudy
2:50 PM 46.4 °F 41.1 °F 26.6 °F 46% 29.39 in 6.2 mi SSE 11.5 mph - N/A   Unknown
3:20 PM 46.4 °F 40.4 °F 28.4 °F 50% 29.39 in 6.2 mi SSE 13.8 mph - N/A   Partly Cloudy
3:50 PM 44.6 °F 38.1 °F 28.4 °F 53% 29.36 in 6.2 mi SSE 13.8 mph - N/A   Mostly Cloudy
4:20 PM 44.6 °F 38.4 °F 28.4 °F 53% 29.36 in 6.2 mi SSE 12.7 mph - N/A   Overcast
4:50 PM 44.6 °F 39.2 °F 28.4 °F 53% 29.33 in 6.2 mi SSE 10.4 mph - N/A   Overcast
5:20 PM 42.8 °F 36.2 °F 28.4 °F 57% 29.33 in 6.2 mi SSE 12.7 mph - N/A   Overcast
5:50 PM 42.8 °F 37.0 °F 28.4 °F 57% 29.30 in 6.2 mi SSE 10.4 mph - N/A   Overcast
6:20 PM 42.8 °F 37.0 °F 30.2 °F 61% 29.30 in 6.2 mi SSE 10.4 mph - N/A   Overcast
6:50 PM 42.8 °F 37.5 °F 30.2 °F 61% 29.30 in 6.2 mi South 9.2 mph - N/A   Mostly Cloudy
7:20 PM 41.0 °F 37.1 °F 30.2 °F 65% 29.27 in 6.2 mi South 5.8 mph - N/A   Overcast
8:20 PM 37.4 °F 32.8 °F 33.8 °F 87% 29.27 in 4.3 mi South 5.8 mph - N/A Rain Light Rain
8:50 PM 35.6 °F 32.8 °F 33.8 °F 93% 29.27 in 5.0 mi SSE 3.5 mph - N/A   Light Drizzle
9:20 PM 35.6 °F 31.7 °F 33.8 °F 93% 29.24 in 6.2 mi SE 4.6 mph - N/A Rain Light Rain
9:50 PM 35.6 °F 31.7 °F 32.0 °F 87% 29.24 in 6.2 mi SE 4.6 mph - N/A Rain Light Rain
10:20 PM 35.6 °F 30.7 °F 32.0 °F 87% 29.24 in 6.2 mi SE 5.8 mph - N/A Rain Light Rain
10:50 PM 35.6 °F 31.7 °F 32.0 °F 87% 29.24 in 6.2 mi SE 4.6 mph - N/A   Light Drizzle
11:20 PM 33.8 °F 29.6 °F 32.0 °F 93% 29.24 in 6.2 mi SE 4.6 mph - N/A   Overcast